Location: Coopersdale
(40.3556°N, 78.9372°W)
Time: 22:56:05
(UTC+00:00)

Courier 1B - Pass Details

Date: 21 January 2021
Orbit: 962 x 1209 km, 28.3° (Epoch: 25 February)

Event Time Altitude Azimuth Distance (km) Brightness Sun altitude
Exits shadow 09:00:03 15° 143° (SE) 2,383 9.7 -40.4°
Drops below altitude 10° 09:01:27 10° 134° (SE) 2,760 10.2 -40.2°
Sets 09:04:37 0° 122° (ESE) 3,746 11.1 -39.6°
